Portada
METAR-TAF:

METAR-TAF

Aeropuertos :

Lleida-Alguaire

Lérida, España

latitud: 41-43-40N, longitud: 000-32-09E, altitud: 350 m

Observación

El informe se hizo hace 22 minutos, a las 13:30 UTC
Viento 5 kt del suroeste, variando entre sur y oeste
Temperatura 11°C
Humedad 71%
Presión 1027 hPa
Visibilidad 10 km o más
sin nubes por debajo de 1500 m y sin presencia de cumulonimbus.

METAR: LEDA 101330Z 23005KT 190V270 CAVOK 11/06 Q1027

Hora: 14:52 (13:52 UTC)


TAF: falta

Observaciones y pronósticos meteorológicos de más de 4000 aeropuertos (mensajes METAR y TAF).

Los puntos amarillos y rojos representan las estaciones disponibles.

Ponga el ratón en el punto deseado para ver el nombre de la estación.

Haga clic para ver las observaciones y los pronósticos meteorológicos.

Para cambiar el mapa : haga clic en los botones verdes con una cruz de color negro para hacer un zoom, en el botón verde con un guión para alejar o en las flechas verdes para mapas adyacentes.


METAR-TAF: